Mountain Home, AR

2:47 PM CDT on May 26, 2017 (GMT -0500)
Baxter County Regional

Weather History for KBPK - December, 2013

Change the Weather History Date:

Tuesday, December 3, 2013

  Actual Average (KFLP) Record (KFLP)
Temperature  
Mean Temperature 55 °F -  
Max Temperature 64 °F 52 °F 75 °F (2012)
Min Temperature 46 °F 33 °F 19 °F (2000)
Degree Days  
Heating Degree Days 10    
Growing Degree Days 5 (Base 50)    
Moisture  
Dew Point 50 °F    
Average Humidity 90    
Maximum Humidity 100    
Minimum Humidity 58    
Precipitation  
Precipitation 0.01 in - - ()
Sea Level Pressure  
Sea Level Pressure 29.65 in    
Wind  
Wind Speed 6 mph (SE)    
Max Wind Speed 12 mph    
Max Gust Speed 20 mph    
Visibility 3 miles    
Events Fog    
Averages and records for this station are not official NWS values.
T = Trace of Precipitation, MM = Missing Value Source: NWS Daily Summary

Daily Weather History Graph

Daily Weather History Graph

Search for Another Location

Airport or City:

Trip Planner

Search our weather history database for the weather conditions in past years. The results will help you decide how hot, cold, wet, or windy it might be!

Date:

Astronomy

Dec. 03, 2013 Rise Set
Actual Time 7:04 AM CST 4:54 PM CST
Civil Twilight 6:36 AM CST 5:22 PM CST
Nautical Twilight 6:04 AM CST 5:54 PM CST
Astronomical Twilight 5:33 AM CST 6:26 PM CST
Moon 7:35 AM CST (12/3) 5:58 PM CST (12/3)
Length of Visible Light 10h 46m
Length of Day
9h 49m
New Moon, 1% of the Moon is Illuminated
Dec 3
New Moon
Dec 9
First Quarter
Dec 17
Full
Dec 25
Last Quarter
Jan 1
New

Hourly Weather History & Observations

Time (CST) Temp. Windchill Dew Point Humidity Pressure Visibility Wind Dir Wind Speed Gust Speed Precip Events Conditions
12:53 AM 46.9 °F - 45.0 °F 93% 29.68 in 4.0 mi SSE 5.8 mph - N/A   Clear
1:00 AM 46.4 °F 43.5 °F 46.4 °F 100% 29.68 in 3.0 mi SSE 5.8 mph - N/A   Scattered Clouds
1:02 AM 46.4 °F 43.5 °F 46.4 °F 100% 29.68 in 2.5 mi SSE 5.8 mph - N/A   Mostly Cloudy
1:14 AM 48.2 °F - 46.4 °F 93% 29.68 in 1.2 mi SSE 4.6 mph - N/A   Mostly Cloudy
1:19 AM 48.2 °F - 46.4 °F 93% 29.68 in 0.5 mi SSE 5.8 mph - N/A Fog Fog
1:28 AM 48.2 °F - 46.4 °F 93% 29.68 in 0.2 mi South 5.8 mph - N/A Fog Fog
1:53 AM 50.0 °F - 48.9 °F 96% 29.68 in 0.5 mi South 3.5 mph - N/A Fog Fog
2:01 AM 50.0 °F - 48.2 °F 94% 29.68 in 0.2 mi SSE 4.6 mph - N/A Fog Fog
2:38 AM 50.0 °F - 48.2 °F 94% 29.67 in 0.5 mi SSE 3.5 mph - N/A Fog Fog
2:43 AM 50.0 °F - 48.2 °F 94% 29.67 in 1.0 mi SSE 3.5 mph - N/A   Mist
2:53 AM 51.1 °F - 48.9 °F 92% 29.66 in 2.0 mi SSE 4.6 mph - N/A   Overcast
3:22 AM 50.0 °F - 48.2 °F 94% 29.66 in 1.8 mi SE 3.5 mph - N/A   Overcast
3:33 AM 50.0 °F - 48.2 °F 94% 29.66 in 2.0 mi SSE 4.6 mph - N/A   Overcast
3:53 AM 51.1 °F - 48.9 °F 92% 29.65 in 2.5 mi SSE 4.6 mph - N/A   Overcast
4:12 AM 50.0 °F - 48.2 °F 94% 29.66 in 3.0 mi Calm Calm - N/A   Overcast
4:19 AM 50.0 °F - 48.2 °F 94% 29.65 in 2.5 mi ESE 4.6 mph - N/A   Overcast
4:53 AM 48.9 °F - 48.0 °F 97% 29.65 in 1.8 mi SE 4.6 mph - N/A   Overcast
5:03 AM 48.2 °F - 48.2 °F 100% 29.65 in 0.5 mi SE 4.6 mph - N/A Fog Fog
5:08 AM 50.0 °F - 48.2 °F 94% 29.65 in 0.2 mi SE 4.6 mph - N/A Fog Fog
5:53 AM 50.0 °F - 48.9 °F 96% 29.66 in 0.2 mi SE 4.6 mph - N/A Fog Fog
6:13 AM 50.0 °F - 48.2 °F 94% 29.66 in 0.5 mi SSE 5.8 mph - N/A Fog Fog
6:19 AM 50.0 °F - 48.2 °F 94% 29.66 in 1.0 mi SSE 5.8 mph - N/A   Mist
6:53 AM 50.0 °F - 48.0 °F 93% 29.66 in 2.0 mi SE 4.6 mph - N/A   Overcast
7:42 AM 50.0 °F - 48.2 °F 94% 29.66 in 1.8 mi SSE 4.6 mph - N/A   Overcast
7:53 AM 50.0 °F - 48.9 °F 96% 29.67 in 1.8 mi SE 4.6 mph - N/A   Overcast
8:53 AM 51.1 °F - 50.0 °F 96% 29.68 in 1.5 mi South 4.6 mph - N/A   Overcast
9:19 AM 51.8 °F - 50.0 °F 94% 29.70 in 2.0 mi SSE 5.8 mph - N/A   Overcast
9:51 AM 53.6 °F - 51.8 °F 94% 29.70 in 2.5 mi ESE 4.6 mph - N/A   Overcast
9:53 AM 53.1 °F - 51.1 °F 93% 29.70 in 2.5 mi SE 3.5 mph - N/A   Overcast
9:56 AM 53.6 °F - 51.8 °F 94% 29.70 in 3.0 mi SE 4.6 mph - N/A   Overcast
10:30 AM 53.6 °F - 51.8 °F 94% 29.69 in 5.0 mi SSE 6.9 mph - N/A   Overcast
10:42 AM 55.4 °F - 51.8 °F 88% 29.69 in 5.0 mi SSE 6.9 mph - N/A   Overcast
10:53 AM 55.9 °F - 51.1 °F 84% 29.68 in 5.0 mi SSE 6.9 mph - N/A   Haze
11:53 AM 57.9 °F - 51.1 °F 78% 29.65 in 6.0 mi Variable 5.8 mph - N/A   Haze
12:53 PM 62.1 °F - 51.1 °F 67% 29.63 in 6.0 mi SE 8.1 mph - N/A   Haze
1:33 PM 62.6 °F - 51.8 °F 68% 29.62 in 7.0 mi SSE 9.2 mph - N/A   Scattered Clouds
1:53 PM 63.0 °F - 50.0 °F 63% 29.60 in 7.0 mi SSE 8.1 mph - N/A   Clear
2:53 PM 64.0 °F - 48.9 °F 58% 29.57 in 8.0 mi SSE 11.5 mph 19.6 mph N/A   Mostly Cloudy
3:53 PM 62.1 °F - 50.0 °F 65% 29.59 in 7.0 mi SE 6.9 mph - N/A   Mostly Cloudy
4:53 PM 60.1 °F - 51.1 °F 72% 29.61 in 8.0 mi East 5.8 mph - N/A   Overcast
5:24 PM 57.2 °F - 51.8 °F 82% 29.62 in 8.0 mi ESE 9.2 mph - N/A   Overcast
5:53 PM 55.9 °F - 50.0 °F 80% 29.62 in 7.0 mi ESE 10.4 mph - N/A   Mostly Cloudy
6:17 PM 55.4 °F - 51.8 °F 88% 29.63 in 7.0 mi ESE 9.2 mph - N/A   Mostly Cloudy
6:49 PM 55.4 °F - 51.8 °F 88% 29.64 in 6.0 mi SE 9.2 mph - N/A   Overcast
6:53 PM 55.0 °F - 51.1 °F 86% 29.64 in 5.0 mi ESE 11.5 mph 18.4 mph N/A   Overcast
7:18 PM 53.6 °F - 51.8 °F 94% 29.65 in 2.5 mi ESE 5.8 mph - N/A   Overcast
7:32 PM 53.6 °F - 51.8 °F 94% 29.65 in 2.5 mi ESE 6.9 mph - N/A   Overcast
7:53 PM 53.1 °F - 52.0 °F 96% 29.65 in 2.5 mi SE 5.8 mph - N/A   Overcast
8:23 PM 53.6 °F - 51.8 °F 94% 29.65 in 3.0 mi SE 9.2 mph - N/A   Overcast
8:53 PM 53.1 °F - 52.0 °F 96% 29.64 in 3.0 mi SE 8.1 mph - 0.01 in   Overcast
9:53 PM 53.1 °F - 52.0 °F 96% 29.63 in 5.0 mi SE 6.9 mph - N/A   Overcast
10:01 PM 53.6 °F - 51.8 °F 94% 29.63 in 5.0 mi SE 5.8 mph - N/A   Overcast
10:28 PM 53.6 °F - 51.8 °F 94% 29.64 in 5.0 mi SE 4.6 mph - N/A   Overcast
10:53 PM 54.0 °F - 52.0 °F 93% 29.64 in 6.0 mi Calm Calm - N/A   Overcast
11:08 PM 53.6 °F - 51.8 °F 94% 29.65 in 5.0 mi ESE 3.5 mph - N/A   Overcast
11:17 PM 53.6 °F - 51.8 °F 94% 29.64 in 5.0 mi ESE 4.6 mph - N/A   Overcast
11:53 PM 54.0 °F - 52.0 °F 93% 29.64 in 4.0 mi ESE 4.6 mph - N/A   Overcast